Home   Weather   Altdorf   Past weeks

Flag for Switzerland Past Weather in Altdorf, Uri, Switzerland — Yesterday and Last 2 Weeks

Now
40 °F

Rain. Overcast.


Feels Like: 35 °F
Forecast: 22 / 44 °F
Wind: 7 mph from West

Location: Altdorf

Current Time: Feb 24, 2017 at 1:55:29 pm

Latest Report: Feb 24, 2017 at 1:00 pm


Visibility: 6 mi

Pressure: 30.00 "Hg

Humidity: 80%

Dew Point: 34 °F

Location of AltdorfLocation

Past Weather in Altdorf — Graph

°F

Altdorf Temperature Yesterday

Maximum temperature yesterday: 60 °F (at 6:00 pm)
Minimum temperature yesterday: 36 °F (at 6:00 am)
Average temperature yesterday: 49 °F

High & Low Weather Summary for the Past Weeks

 TemperatureHumidityPressure
High60 °F (Feb 23, 6:00 pm)98% (Feb 22, 8:00 am)30.65 "Hg (Feb 22, 8:00 am)
Low25 °F (Feb 19, 7:00 am)30% (Feb 12, 2:00 pm)29.62 "Hg (Feb 23, 5:00 pm)
Average40 °F78%30.25 "Hg
* Reported Feb 9 12:00 pm — Feb 24 12:00 pm, Altdorf, Weather by CustomWeather, © 2017

Note: Actual official high and low records may vary slightly from our data, if they occured in-between our weather recording intervals... More about our weather records

Advertising

Altdorf Weather History for the Previous 24 Hours

Scroll right to see more
 ConditionsComfort  
Time TempWeatherWind HumidityBarometerVisibility
12:00 pm
Fri, Feb 24
41 °FQuite cool.9 mph76%30.01 "HgN/A
11:00 am41 °FQuite cool.12 mph75%30.00 "HgN/A
10:00 am40 °FRain. Overcast.16 mph80%29.98 "Hg6 mi
9:00 am41 °FQuite cool.3 mph86%29.95 "HgN/A
8:00 am41 °FQuite cool.3 mph85%29.93 "HgN/A
7:00 am40 °FRain. Overcast.8 mph88%29.90 "Hg3 mi
6:00 am42 °FQuite cool.10 mph84%29.88 "HgN/A
5:00 am43 °FQuite cool.23 mph79%29.84 "HgN/A
4:00 am47 °FRain. Overcast.25 mph79%29.76 "Hg12 mi
3:00 am53 °FCool.20 mph58%29.72 "HgN/A
2:00 am54 °FCool.14 mph57%29.72 "HgN/A
1:00 am54 °FOvercast.7 mph53%29.70 "Hg12 mi
12:00 am55 °FRefreshingly cool.10 mph50%29.70 "HgN/A
11:00 pm
Thu, Feb 23
54 °FCool.3 mph43%29.68 "HgN/A
10:00 pm56 °FPassing clouds.3 mph36%29.66 "Hg12 mi
9:00 pm55 °FRefreshingly cool.10 mph39%29.66 "HgN/A
8:00 pm57 °FRefreshingly cool.18 mph34%29.63 "HgN/A
7:00 pm59 °FPassing clouds.15 mph31%29.63 "Hg16 mi
6:00 pm60 °FRefreshingly cool.7 mph31%29.62 "HgN/A
5:00 pm56 °FRefreshingly cool.3 mph44%29.62 "HgN/A
4:00 pm57 °FScattered clouds.2 mph53%29.64 "Hg19 mi
3:00 pm59 °FRefreshingly cool.1 mph38%29.66 "HgN/A
2:00 pm58 °FRefreshingly cool.3 mph41%29.70 "HgN/A
1:00 pm56 °FPartly sunny.7 mph52%29.75 "Hg16 mi
Weather by CustomWeather, © 2017

See weather overviewHow to use our weather pages